| time (UTC) | temp F | wind direction | speed MPH | gust MPH | rain 1hr in | rain 24hr in | rain mn in | humidity % | barometer mb |
| 20260901003644 | 74 | 213 | 0.0 | 0.0 | 0.00 | 0.00 | 0.00 | 94 | 1046.4 |
| 20260901003142 | 74 | 213 | 0.0 | 0.0 | 0.00 | 0.00 | 0.00 | 93 | 1046.4 |
| 20260901002640 | 74 | 213 | 0.0 | 0.0 | 0.00 | 0.00 | 0.00 | 93 | 1046.4 |
| 20260901002140 | 75 | 213 | 0.0 | 0.0 | 0.00 | 0.00 | 0.00 | 93 | 1046.5 |
| 20260901001858 | 75 | 213 | 0.0 | 0.0 | 0.00 | 0.00 | 0.00 | 92 | 1046.5 |
| 20260901001138 | 75 | 213 | 0.0 | 0.0 | 0.00 | 0.00 | 0.00 | 92 | 1046.5 |
| 20260901000637 | 76 | 213 | 0.0 | 0.0 | 0.00 | 0.00 | 0.00 | 92 | 1046.4 |
| 20260901000136 | 76 | 213 | 0.0 | 0.0 | 0.00 | 0.00 | 0.00 | 91 | 1046.4 |
| 20260831235626 | 76 | 213 | 0.0 | 0.0 | 0.00 | 0.00 | 0.00 | 91 | 1046.4 |
| 20260831235124 | 77 | 213 | 0.0 | 0.0 | 0.00 | 0.00 | 0.00 | 90 | 1046.5 |
| 20260831234618 | 78 | 213 | 0.0 | 0.0 | 0.00 | 0.00 | 0.00 | 90 | 1046.5 |
| 20260831234330 | 78 | 213 | 0.0 | 0.0 | 0.00 | 0.00 | 0.00 | 89 | 1046.5 |
| 20260831233833 | 78 | 213 | 0.0 | 0.0 | 0.00 | 0.00 | 0.00 | 89 | 1046.5 |
| 20260831233333 | 79 | 213 | 0.0 | 0.0 | 0.00 | 0.00 | 0.00 | 89 | 1046.5 |
| 20260831232608 | 79 | 213 | 0.0 | 0.0 | 0.00 | 0.00 | 0.00 | 89 | 1046.5 |
| 20260831232106 | 79 | 213 | 0.0 | 0.0 | 0.00 | 0.00 | 0.00 | 88 | 1046.6 |
| 20260831231607 | 80 | 213 | 0.0 | 0.0 | 0.00 | 0.00 | 0.00 | 88 | 1046.6 |
| 20260831231106 | 80 | 213 | 0.0 | 0.0 | 0.00 | 0.00 | 0.00 | 88 | 1046.6 |
| 20260831230604 | 80 | 213 | 0.0 | 0.0 | 0.00 | 0.00 | 0.00 | 88 | 1046.6 |
| 20260831230104 | 80 | 213 | 0.0 | 0.0 | 0.00 | 0.00 | 0.00 | 87 | 1046.6 |
| 20260831225603 | 80 | 213 | 0.0 | 0.0 | 0.00 | 0.00 | 0.00 | 86 | 1046.6 |
| 20260831225320 | 81 | 213 | 0.0 | 0.0 | 0.00 | 0.00 | 0.00 | 86 | 1046.7 |
| 20260831224559 | 81 | 223 | 0.0 | 0.0 | 0.00 | 0.00 | 0.00 | 85 | 1046.7 |
| 20260831224057 | 82 | 142 | 0.0 | 0.0 | 0.00 | 0.00 | 0.00 | 86 | 1046.7 |
| 20260831223558 | 82 | 142 | 0.0 | 0.0 | 0.00 | 0.00 | 0.00 | 85 | 1046.9 |
| 20260831223056 | 82 | 142 | 0.0 | 0.0 | 0.00 | 0.00 | 0.00 | 84 | 1046.9 |
| 20260831222558 | 82 | 142 | 0.0 | 0.0 | 0.00 | 0.00 | 0.00 | 84 | 1046.9 |
| 20260831222058 | 83 | 142 | 0.0 | 0.0 | 0.00 | 0.00 | 0.00 | 83 | 1046.8 |
| 20260831221552 | 83 | 142 | 0.0 | 1.0 | 0.00 | 0.00 | 0.00 | 82 | 1046.8 |
| 20260831221040 | 83 | 196 | 0.0 | 2.0 | 0.00 | 0.00 | 0.00 | 82 | 1046.8 |
| 20260831220540 | 83 | 226 | 1.0 | 2.0 | 0.00 | 0.00 | 0.00 | 82 | 1046.9 |
| 20260831220039 | 83 | 156 | 1.0 | 2.0 | 0.00 | 0.00 | 0.00 | 81 | 1046.9 |
| 20260831215540 | 83 | 157 | 1.0 | 2.0 | 0.00 | 0.00 | 0.00 | 81 | 1046.9 |
| 20260831215039 | 83 | 157 | 1.0 | 3.0 | 0.00 | 0.00 | 0.00 | 81 | 1047.1 |
| 20260831214539 | 83 | 154 | 0.0 | 3.0 | 0.00 | 0.00 | 0.00 | 81 | 1047.1 |
| 20260831214040 | 83 | 168 | 0.0 | 1.0 | 0.00 | 0.00 | 0.00 | 82 | 1047.1 |
| 20260831213540 | 83 | 167 | 1.0 | 3.0 | 0.00 | 0.00 | 0.00 | 81 | 1047.1 |
| 20260831213040 | 83 | 186 | 1.0 | 3.0 | 0.00 | 0.00 | 0.00 | 81 | 1047.1 |
| 20260831212534 | 83 | 173 | 1.0 | 3.0 | 0.00 | 0.00 | 0.00 | 81 | 1047.1 |
| 20260831212517 | 83 | 135 | 1.0 | 3.0 | 0.00 | 0.00 | 0.00 | 80 | 1047.1 |
| 20260831211519 | 83 | 158 | 1.0 | 3.0 | 0.00 | 0.00 | 0.00 | 81 | 1047.1 |
| 20260831211013 | 83 | 162 | 1.0 | 2.0 | 0.00 | 0.00 | 0.00 | 80 | 1047.1 |
| 20260831210726 | 83 | 141 | 0.0 | 2.0 | 0.00 | 0.02 | 0.00 | 80 | 1047.1 |
| 20260831205957 | 83 | 250 | 0.0 | 2.0 | 0.00 | 0.04 | 0.00 | 80 | 1047.1 |
| 20260831205455 | 83 | 148 | 1.0 | 3.0 | 0.00 | 0.06 | 0.00 | 81 | 1047.1 |
| 20260831204949 | 83 | 206 | 1.0 | 3.0 | 0.00 | 0.06 | 0.00 | 80 | 1047.3 |
| 20260831204439 | 83 | 225 | 0.0 | 3.0 | 0.00 | 0.06 | 0.00 | 81 | 1047.3 |
| 20260831203937 | 83 | 163 | 0.0 | 3.0 | 0.00 | 0.06 | 0.00 | 82 | 1047.3 |
| 20260831203426 | 82 | 157 | 0.0 | 0.0 | 0.00 | 0.06 | 0.00 | 82 | 1047.5 |
| 20260831202925 | 82 | 137 | 0.0 | 0.0 | 0.00 | 0.06 | 0.00 | 83 | 1047.5 |
| 20260831202415 | 82 | 169 | 0.0 | 0.0 | 0.00 | 0.06 | 0.00 | 82 | 1047.5 |
| 20260831202132 | 82 | 233 | 0.0 | 2.0 | 0.00 | 0.06 | 0.00 | 82 | 1047.5 |
| 20260831201847 | 82 | 202 | 0.0 | 2.0 | 0.00 | 0.06 | 0.00 | 82 | 1047.5 |
| 20260831200901 | 82 | 157 | 1.0 | 2.0 | 0.00 | 0.06 | 0.00 | 81 | 1047.5 |
| 20260831200355 | 83 | 150 | 0.0 | 2.0 | 0.00 | 0.06 | 0.00 | 81 | 1047.6 |
| 20260831200108 | 83 | 153 | 0.0 | 2.0 | 0.00 | 0.06 | 0.00 | 80 | 1047.6 |
| 20260831195340 | 83 | 148 | 1.0 | 3.0 | 0.00 | 0.06 | 0.00 | 80 | 1047.6 |
| 20260831195049 | 83 | 194 | 1.0 | 3.0 | 0.00 | 0.06 | 0.00 | 79 | 1047.6 |
| 20260831194556 | 83 | 167 | 1.0 | 3.0 | 0.00 | 0.06 | 0.00 | 80 | 1047.6 |
| 20260831193825 | 83 | 237 | 1.0 | 3.0 | 0.00 | 0.06 | 0.00 | 81 | 1047.8 |
| 20260831193320 | 83 | 223 | 0.0 | 2.0 | 0.00 | 0.06 | 0.00 | 81 | 1047.8 |
| 20260831192813 | 82 | 222 | 0.0 | 2.0 | 0.00 | 0.06 | 0.00 | 81 | 1047.8 |
| 20260831192308 | 82 | 142 | 0.0 | 2.0 | 0.00 | 0.06 | 0.00 | 82 | 1048.0 |
| 20260831191800 | 82 | 200 | 0.0 | 0.0 | 0.00 | 0.06 | 0.00 | 81 | 1048.0 |
| 20260831191251 | 82 | 201 | 0.0 | 1.0 | 0.00 | 0.06 | 0.00 | 80 | 1048.0 |
| 20260831191006 | 82 | 242 | 0.0 | 2.0 | 0.00 | 0.06 | 0.00 | 81 | 1047.9 |
| 20260831190244 | 82 | 208 | 0.0 | 3.0 | 0.00 | 0.06 | 0.00 | 81 | 1047.9 |
| 20260831190002 | 82 | 205 | 0.0 | 3.0 | 0.00 | 0.06 | 0.00 | 81 | 1047.9 |
| 20260831185232 | 82 | 236 | 0.0 | 3.0 | 0.00 | 0.06 | 0.00 | 81 | 1048.1 |
| 20260831184720 | 82 | 259 | 0.0 | 2.0 | 0.00 | 0.06 | 0.00 | 81 | 1048.1 |
| 20260831184448 | 82 | 170 | 1.0 | 3.0 | 0.00 | 0.06 | 0.00 | 81 | 1048.1 |
| 20260831183708 | 82 | 157 | 1.0 | 3.0 | 0.00 | 0.06 | 0.00 | 80 | 1048.1 |
| 20260831183207 | 81 | 174 | 2.0 | 3.0 | 0.00 | 0.06 | 0.00 | 80 | 1048.1 |
| 20260831182701 | 82 | 158 | 1.0 | 2.0 | 0.00 | 0.06 | 0.00 | 80 | 1048.1 |
| 20260831182155 | 81 | 229 | 0.0 | 2.0 | 0.00 | 0.06 | 0.00 | 81 | 1048.2 |
| 20260831181648 | 81 | 165 | 1.0 | 3.0 | 0.00 | 0.06 | 0.00 | 80 | 1048.2 |
| 20260831181141 | 81 | 157 | 1.0 | 3.0 | 0.00 | 0.06 | 0.00 | 80 | 1048.2 |
| 20260831180631 | 81 | 161 | 1.0 | 3.0 | 0.00 | 0.06 | 0.00 | 81 | 1048.4 |
| 20260831180342 | 81 | 160 | 1.0 | 3.0 | 0.00 | 0.06 | 0.00 | 81 | 1048.4 |
| 20260831175613 | 81 | 257 | 1.0 | 4.0 | 0.00 | 0.06 | 0.00 | 81 | 1048.4 |
| 20260831175112 | 81 | 146 | 1.0 | 4.0 | 0.00 | 0.06 | 0.00 | 80 | 1048.3 |
| 20260831174839 | 81 | 193 | 1.0 | 3.0 | 0.00 | 0.06 | 0.00 | 80 | 1048.3 |
| 20260831174113 | 81 | 149 | 1.0 | 2.0 | 0.00 | 0.06 | 0.00 | 80 | 1048.3 |
| 20260831173835 | 82 | 217 | 1.0 | 3.0 | 0.00 | 0.06 | 0.00 | 79 | 1048.2 |
| 20260831173113 | 82 | 239 | 1.0 | 4.0 | 0.00 | 0.06 | 0.00 | 80 | 1048.2 |
| 20260831172613 | 82 | 223 | 1.0 | 4.0 | 0.00 | 0.06 | 0.00 | 78 | 1048.2 |
| 20260831172335 | 83 | 208 | 1.0 | 4.0 | 0.00 | 0.06 | 0.00 | 79 | 1048.3 |
| 20260831171831 | 83 | 149 | 0.0 | 4.0 | 0.00 | 0.06 | 0.00 | 78 | 1048.3 |
| 20260831171107 | 83 | 197 | 0.0 | 1.0 | 0.00 | 0.06 | 0.00 | 77 | 1048.3 |
| 20260831170824 | 83 | 190 | 1.0 | 2.0 | 0.00 | 0.06 | 0.00 | 77 | 1048.6 |
| 20260831170049 | 83 | 196 | 1.0 | 4.0 | 0.00 | 0.06 | 0.00 | 77 | 1048.6 |
| 20260831165548 | 83 | 166 | 1.0 | 4.0 | 0.00 | 0.06 | 0.00 | 76 | 1048.6 |
| 20260831165048 | 84 | 285 | 1.0 | 3.0 | 0.00 | 0.06 | 0.00 | 76 | 1048.6 |
| 20260831164815 | 84 | 290 | 1.0 | 3.0 | 0.00 | 0.07 | 0.00 | 75 | 1048.6 |
| 20260831164052 | 85 | 103 | 1.0 | 4.0 | 0.00 | 0.13 | 0.00 | 74 | 1048.6 |
| 20260831163548 | 84 | 165 | 1.0 | 4.0 | 0.00 | 0.14 | 0.00 | 76 | 1048.7 |
| 20260831163048 | 83 | 204 | 1.0 | 3.0 | 0.00 | 0.14 | 0.00 | 76 | 1048.7 |
| 20260831162549 | 83 | 300 | 0.0 | 2.0 | 0.00 | 0.14 | 0.00 | 81 | 1048.7 |
| 20260831162047 | 83 | 241 | 1.0 | 4.0 | 0.00 | 0.14 | 0.00 | 76 | 1048.7 |
| 20260831161541 | 83 | 168 | 1.0 | 4.0 | 0.00 | 0.14 | 0.00 | 77 | 1048.7 |
| 20260831161035 | 83 | 290 | 1.0 | 4.0 | 0.00 | 0.14 | 0.00 | 76 | 1048.7 |
| 20260831160529 | 83 | 146 | 2.0 | 5.0 | 0.00 | 0.14 | 0.00 | 77 | 1048.7 |
| 20260831160253 | 83 | 217 | 2.0 | 5.0 | 0.00 | 0.14 | 0.00 | 77 | 1048.7 |
| 20260831155517 | 83 | 241 | 1.0 | 5.0 | 0.00 | 0.14 | 0.00 | 77 | 1048.7 |
| 20260831155011 | 83 | 107 | 1.0 | 5.0 | 0.00 | 0.14 | 0.00 | 77 | 1049.1 |
| 20260831154505 | 82 | 224 | 1.0 | 4.0 | 0.00 | 0.14 | 0.00 | 79 | 1049.1 |
| 20260831153959 | 82 | 151 | 1.0 | 4.0 | 0.00 | 0.14 | 0.00 | 79 | 1049.1 |
| 20260831153716 | 82 | 160 | 1.0 | 3.0 | 0.00 | 0.14 | 0.00 | 80 | 1048.9 |
| 20260831153210 | 82 | 223 | 1.0 | 3.0 | 0.00 | 0.14 | 0.00 | 79 | 1048.9 |
| 20260831152436 | 82 | 225 | 0.0 | 3.0 | 0.00 | 0.14 | 0.00 | 79 | 1048.9 |
| 20260831151933 | 82 | 223 | 0.0 | 3.0 | 0.00 | 0.14 | 0.00 | 79 | 1049.2 |
| 20260831151428 | 81 | 171 | 1.0 | 4.0 | 0.00 | 0.14 | 0.00 | 81 | 1049.2 |
| 20260831151145 | 81 | 209 | 1.0 | 4.0 | 0.00 | 0.14 | 0.00 | 80 | 1049.2 |
| 20260831150415 | 81 | 161 | 0.0 | 2.0 | 0.00 | 0.14 | 0.00 | 82 | 1049.3 |
| 20260831145909 | 81 | 288 | 0.0 | 1.0 | 0.00 | 0.14 | 0.00 | 81 | 1049.3 |
| 20260831145404 | 80 | 344 | 1.0 | 3.0 | 0.00 | 0.14 | 0.00 | 82 | 1049.3 |
| 20260831144852 | 79 | 182 | 1.0 | 3.0 | 0.00 | 0.14 | 0.00 | 83 | 1048.9 |
| 20260831144351 | 79 | 157 | 0.0 | 2.0 | 0.00 | 0.14 | 0.00 | 85 | 1048.9 |
| 20260831144106 | 78 | 138 | 0.0 | 1.0 | 0.00 | 0.14 | 0.00 | 86 | 1048.9 |
| 20260831143338 | 78 | 83 | 0.0 | 1.0 | 0.00 | 0.14 | 0.00 | 87 | 1048.9 |
| 20260831142832 | 78 | 94 | 0.0 | 1.0 | 0.00 | 0.14 | 0.00 | 87 | 1048.9 |
| 20260831142327 | 78 | 96 | 0.0 | 2.0 | 0.00 | 0.14 | 0.00 | 87 | 1049.1 |
| 20260831141820 | 78 | 96 | 0.0 | 2.0 | 0.00 | 0.14 | 0.00 | 86 | 1049.1 |
| 20260831141542 | 78 | 207 | 0.0 | 0.0 | 0.00 | 0.14 | 0.00 | 87 | 1049.1 |
| 20260831140808 | 78 | 207 | 0.0 | 0.0 | 0.00 | 0.14 | 0.00 | 87 | 1049.1 |
| 20260831140302 | 78 | 205 | 0.0 | 2.0 | 0.00 | 0.14 | 0.00 | 86 | 1049.1 |
| 20260831135756 | 78 | 121 | 1.0 | 2.0 | 0.00 | 0.14 | 0.00 | 87 | 1049.1 |
| 20260831135251 | 78 | 187 | 1.0 | 3.0 | 0.00 | 0.14 | 0.00 | 87 | 1049.2 |
| 20260831135006 | 78 | 153 | 1.0 | 3.0 | 0.00 | 0.14 | 0.00 | 87 | 1049.2 |
| 20260831134238 | 78 | 130 | 0.0 | 2.0 | 0.00 | 0.14 | 0.00 | 87 | 1049.2 |
| 20260831133728 | 78 | 186 | 1.0 | 3.0 | 0.00 | 0.14 | 0.00 | 87 | 1049.3 |
| 20260831133226 | 77 | 130 | 1.0 | 3.0 | 0.00 | 0.14 | 0.00 | 88 | 1049.3 |
| 20260831132720 | 77 | 203 | 1.0 | 3.0 | 0.00 | 0.14 | 0.00 | 89 | 1049.3 |
| 20260831132213 | 76 | 212 | 1.0 | 3.0 | 0.00 | 0.14 | 0.00 | 89 | 1049.2 |
| 20260831131710 | 76 | 127 | 0.0 | 1.0 | 0.00 | 0.14 | 0.00 | 92 | 1049.2 |
| 20260831131202 | 75 | 127 | 0.0 | 2.0 | 0.00 | 0.14 | 0.00 | 92 | 1049.2 |
| 20260831130657 | 75 | 131 | 0.0 | 2.0 | 0.00 | 0.14 | 0.00 | 93 | 1049.3 |
| 20260831130146 | 75 | 237 | 0.0 | 0.0 | 0.00 | 0.14 | 0.00 | 95 | 1049.3 |
| 20260831125645 | 74 | 237 | 0.0 | 0.0 | 0.00 | 0.14 | 0.00 | 96 | 1049.3 |
| 20260831125138 | 73 | 152 | 0.0 | 0.0 | 0.00 | 0.14 | 0.00 | 98 | 1049.2 |
| 20260831125121 | 73 | 153 | 0.0 | 0.0 | 0.00 | 0.14 | 0.00 | 99 | 1049.2 |
| 20260831124126 | 72 | 248 | 0.0 | 0.0 | 0.00 | 0.14 | 0.00 | 99 | 1049.2 |
| 20260831123620 | 71 | 247 | 0.0 | 0.0 | 0.00 | 0.14 | 0.00 | 99 | 1049.1 |
| 20260831123113 | 71 | 248 | 0.0 | 0.0 | 0.00 | 0.14 | 0.00 | 99 | 1049.1 |
| 20260831122603 | 71 | 247 | 0.0 | 0.0 | 0.00 | 0.14 | 0.00 | 99 | 1049.1 |
| 20260831122102 | 70 | 247 | 0.0 | 0.0 | 0.00 | 0.14 | 0.00 | 99 | 1048.8 |
| 20260831121556 | 70 | 239 | 0.0 | 0.0 | 0.00 | 0.14 | 0.00 | 99 | 1048.8 |
| 20260831121050 | 69 | 208 | 0.0 | 0.0 | 0.00 | 0.14 | 0.00 | 99 | 1048.8 |
| 20260831120544 | 69 | 208 | 0.0 | 0.0 | 0.00 | 0.14 | 0.00 | 99 | 1048.7 |
| 20260831120305 | 69 | 208 | 0.0 | 0.0 | 0.00 | 0.14 | 0.00 | 99 | 1048.7 |
| 20260831115531 | 69 | 208 | 0.0 | 0.0 | 0.00 | 0.14 | 0.00 | 99 | 1048.7 |
| 20260831115022 | 69 | 209 | 0.0 | 0.0 | 0.00 | 0.14 | 0.00 | 99 | 1048.7 |
| 20260831114520 | 68 | 208 | 0.0 | 0.0 | 0.00 | 0.14 | 0.00 | 99 | 1048.7 |
| 20260831114014 | 68 | 208 | 0.0 | 0.0 | 0.00 | 0.14 | 0.00 | 99 | 1048.7 |
| 20260831113508 | 68 | 208 | 0.0 | 0.0 | 0.00 | 0.14 | 0.00 | 99 | 1048.6 |
| 20260831113002 | 68 | 208 | 0.0 | 0.0 | 0.00 | 0.14 | 0.00 | 99 | 1048.6 |
| 20260831112456 | 68 | 208 | 0.0 | 0.0 | 0.00 | 0.14 | 0.00 | 99 | 1048.6 |
| 20260831111949 | 68 | 208 | 0.0 | 0.0 | 0.00 | 0.14 | 0.00 | 99 | 1048.5 |
| 20260831111439 | 68 | 208 | 0.0 | 0.0 | 0.00 | 0.14 | 0.00 | 99 | 1048.5 |
| 20260831110938 | 68 | 208 | 0.0 | 0.0 | 0.00 | 0.14 | 0.00 | 99 | 1048.5 |
| 20260831110432 | 68 | 208 | 0.0 | 0.0 | 0.00 | 0.14 | 0.00 | 99 | 1048.3 |
| 20260831110153 | 68 | 208 | 0.0 | 0.0 | 0.00 | 0.14 | 0.00 | 99 | 1048.3 |
| 20260831105642 | 68 | 208 | 0.0 | 0.0 | 0.00 | 0.14 | 0.00 | 99 | 1048.3 |
| 20260831104914 | 68 | 208 | 0.0 | 0.0 | 0.00 | 0.14 | 0.00 | 99 | 1048.1 |
| 20260831104408 | 68 | 208 | 0.0 | 0.0 | 0.00 | 0.14 | 0.00 | 99 | 1048.1 |
| 20260831103857 | 68 | 208 | 0.0 | 0.0 | 0.00 | 0.14 | 0.00 | 99 | 1048.1 |
| 20260831103356 | 68 | 208 | 0.0 | 0.0 | 0.00 | 0.14 | 0.00 | 99 | 1048.1 |
| 20260831103119 | 68 | 208 | 0.0 | 0.0 | 0.00 | 0.14 | 0.00 | 99 | 1048.1 |
| 20260831102344 | 68 | 208 | 0.0 | 0.0 | 0.00 | 0.14 | 0.00 | 99 | 1048.1 |
| 20260831101838 | 68 | 208 | 0.0 | 0.0 | 0.00 | 0.14 | 0.00 | 99 | 1048.1 |
| 20260831101332 | 68 | 208 | 0.0 | 0.0 | 0.00 | 0.14 | 0.00 | 99 | 1048.1 |
| 20260831100826 | 68 | 208 | 0.0 | 0.0 | 0.00 | 0.14 | 0.00 | 99 | 1047.7 |
| 20260831100315 | 68 | 208 | 0.0 | 0.0 | 0.00 | 0.14 | 0.00 | 99 | 1047.7 |
| 20260831100116 | 68 | 208 | 0.0 | 0.0 | 0.00 | 0.14 | 0.00 | 99 | 1047.7 |
| 20260831094802 | 68 | 208 | 0.0 | 0.0 | 0.00 | 0.14 | 0.00 | 99 | 1047.7 |
| 20260831094256 | 68 | 208 | 0.0 | 0.0 | 0.00 | 0.14 | 0.00 | 99 | 1047.7 |
| 20260831093745 | 68 | 208 | 0.0 | 0.0 | 0.00 | 0.14 | 0.00 | 99 | 1047.7 |
| 20260831093243 | 68 | 208 | 0.0 | 0.0 | 0.00 | 0.14 | 0.00 | 99 | 1047.7 |
| 20260831092737 | 68 | 208 | 0.0 | 0.0 | 0.00 | 0.14 | 0.00 | 99 | 1047.7 |
| 20260831092451 | 68 | 208 | 0.0 | 0.0 | 0.00 | 0.14 | 0.00 | 99 | 1047.6 |
| 20260831091727 | 68 | 208 | 0.0 | 0.0 | 0.00 | 0.14 | 0.00 | 99 | 1047.6 |
| 20260831091225 | 68 | 208 | 0.0 | 0.0 | 0.00 | 0.14 | 0.00 | 99 | 1047.6 |
| 20260831090725 | 68 | 208 | 0.0 | 0.0 | 0.00 | 0.14 | 0.00 | 99 | 1047.6 |
| 20260831090226 | 68 | 208 | 0.0 | 0.0 | 0.00 | 0.14 | 0.00 | 99 | 1047.6 |
| 20260831085725 | 68 | 208 | 0.0 | 0.0 | 0.00 | 0.14 | 0.00 | 99 | 1047.6 |
| 20260831085226 | 68 | 208 | 0.0 | 0.0 | 0.00 | 0.14 | 0.00 | 99 | 1047.6 |
| 20260831084726 | 68 | 208 | 0.0 | 0.0 | 0.00 | 0.14 | 0.00 | 99 | 1047.6 |
| 20260831084225 | 68 | 208 | 0.0 | 0.0 | 0.00 | 0.14 | 0.00 | 99 | 1047.6 |
| 20260831083725 | 68 | 208 | 0.0 | 0.0 | 0.00 | 0.14 | 0.00 | 99 | 1047.6 |
| 20260831083219 | 68 | 208 | 0.0 | 0.0 | 0.00 | 0.14 | 0.00 | 99 | 1047.6 |
| 20260831082709 | 68 | 208 | 0.0 | 0.0 | 0.00 | 0.14 | 0.00 | 99 | 1047.6 |
| 20260831082210 | 68 | 208 | 0.0 | 0.0 | 0.00 | 0.14 | 0.00 | 99 | 1047.6 |
| 20260831081709 | 68 | 208 | 0.0 | 0.0 | 0.00 | 0.14 | 0.00 | 99 | 1047.6 |
| 20260831081210 | 68 | 208 | 0.0 | 0.0 | 0.00 | 0.14 | 0.00 | 99 | 1047.6 |
| 20260831080709 | 68 | 208 | 0.0 | 0.0 | 0.00 | 0.14 | 0.00 | 99 | 1047.4 |
| 20260831080209 | 68 | 209 | 0.0 | 0.0 | 0.00 | 0.14 | 0.00 | 99 | 1047.4 |
| 20260831075710 | 68 | 208 | 0.0 | 0.0 | 0.00 | 0.14 | 0.00 | 99 | 1047.4 |
| 20260831075210 | 67 | 208 | 0.0 | 0.0 | 0.00 | 0.14 | 0.00 | 99 | 1047.2 |
| 20260831074709 | 68 | 208 | 0.0 | 0.0 | 0.00 | 0.14 | 0.00 | 99 | 1047.2 |
| 20260831074427 | 68 | 208 | 0.0 | 0.0 | 0.00 | 0.14 | 0.00 | 99 | 1047.2 |
| 20260831073651 | 68 | 208 | 0.0 | 0.0 | 0.00 | 0.14 | 0.00 | 99 | 1047.1 |
| 20260831073140 | 68 | 208 | 0.0 | 0.0 | 0.00 | 0.14 | 0.00 | 99 | 1047.1 |
| 20260831072629 | 68 | 208 | 0.0 | 0.0 | 0.00 | 0.14 | 0.00 | 99 | 1047.1 |
| 20260831072345 | 68 | 208 | 0.0 | 0.0 | 0.00 | 0.14 | 0.00 | 99 | 1047.2 |
| 20260831071618 | 68 | 208 | 0.0 | 0.0 | 0.00 | 0.14 | 0.00 | 99 | 1047.2 |
| 20260831071112 | 68 | 208 | 0.0 | 0.0 | 0.00 | 0.14 | 0.00 | 99 | 1047.2 |
| 20260831070828 | 68 | 208 | 0.0 | 0.0 | 0.00 | 0.14 | 0.00 | 99 | 1047.3 |
| 20260831070055 | 68 | 208 | 0.0 | 0.0 | 0.00 | 0.14 | 0.00 | 99 | 1047.3 |
| 20260831065553 | 68 | 208 | 0.0 | 0.0 | 0.00 | 0.14 | 0.00 | 98 | 1047.3 |
| 20260831065047 | 68 | 208 | 0.0 | 0.0 | 0.00 | 0.14 | 0.00 | 99 | 1047.3 |
| 20260831064537 | 68 | 208 | 0.0 | 0.0 | 0.00 | 0.14 | 0.00 | 99 | 1047.3 |
| 20260831064035 | 68 | 208 | 0.0 | 0.0 | 0.00 | 0.14 | 0.00 | 99 | 1047.3 |
| 20260831063529 | 68 | 208 | 0.0 | 0.0 | 0.00 | 0.14 | 0.00 | 99 | 1047.4 |
| 20260831063023 | 68 | 208 | 0.0 | 0.0 | 0.00 | 0.14 | 0.00 | 99 | 1047.4 |
| 20260831062513 | 68 | 208 | 0.0 | 0.0 | 0.00 | 0.14 | 0.00 | 99 | 1047.4 |
| 20260831062240 | 68 | 208 | 0.0 | 0.0 | 0.00 | 0.14 | 0.00 | 98 | 1047.5 |
| 20260831061506 | 69 | 208 | 0.0 | 0.0 | 0.00 | 0.14 | 0.00 | 98 | 1047.5 |
| 20260831061000 | 69 | 208 | 0.0 | 0.0 | 0.00 | 0.14 | 0.00 | 98 | 1047.5 |
| 20260831060454 | 69 | 208 | 0.0 | 0.0 | 0.00 | 0.14 | 0.00 | 98 | 1047.6 |
| 20260831055942 | 69 | 208 | 0.0 | 0.0 | 0.00 | 0.14 | 0.00 | 98 | 1047.6 |
| 20260831055437 | 69 | 208 | 0.0 | 0.0 | 0.00 | 0.14 | 0.00 | 99 | 1047.6 |
| 20260831055157 | 69 | 208 | 0.0 | 0.0 | 0.00 | 0.14 | 0.00 | 99 | 1047.6 |
| 20260831054654 | 69 | 208 | 0.0 | 0.0 | 0.00 | 0.14 | 0.00 | 99 | 1047.6 |
| 20260831053923 | 69 | 208 | 0.0 | 0.0 | 0.00 | 0.14 | 0.00 | 98 | 1047.6 |
| 20260831053417 | 69 | 208 | 0.0 | 0.0 | 0.00 | 0.14 | 0.00 | 98 | 1047.6 |
| 20260831052911 | 69 | 208 | 0.0 | 0.0 | 0.00 | 0.14 | 0.00 | 98 | 1047.6 |
| 20260831052400 | 69 | 208 | 0.0 | 0.0 | 0.00 | 0.14 | 0.00 | 99 | 1047.6 |
| 20260831051900 | 69 | 208 | 0.0 | 0.0 | 0.00 | 0.14 | 0.00 | 98 | 1047.6 |
| 20260831051624 | 69 | 208 | 0.0 | 0.0 | 0.00 | 0.14 | 0.00 | 98 | 1047.6 |
| 20260831051110 | 69 | 208 | 0.0 | 0.0 | 0.00 | 0.14 | 0.00 | 98 | 1047.7 |
| 20260831050338 | 69 | 208 | 0.0 | 0.0 | 0.00 | 0.14 | 0.00 | 98 | 1047.7 |
| 20260831045836 | 70 | 238 | 0.0 | 0.0 | 0.00 | 0.14 | 0.00 | 99 | 1047.7 |
| 20260831045331 | 70 | 238 | 0.0 | 0.0 | 0.00 | 0.14 | 0.00 | 99 | 1047.6 |
| 20260831045046 | 70 | 238 | 0.0 | 0.0 | 0.00 | 0.14 | 0.00 | 98 | 1047.6 |
| 20260831044545 | 70 | 238 | 0.0 | 0.0 | 0.00 | 0.14 | 0.00 | 99 | 1047.6 |
| 20260831043807 | 69 | 238 | 0.0 | 0.0 | 0.00 | 0.14 | 0.00 | 98 | 1047.7 |
| 20260831043536 | 69 | 238 | 0.0 | 0.0 | 0.00 | 0.14 | 0.00 | 98 | 1047.7 |
| 20260831042759 | 69 | 238 | 0.0 | 0.0 | 0.00 | 0.14 | 0.00 | 98 | 1047.7 |
| 20260831042255 | 69 | 238 | 0.0 | 0.0 | 0.00 | 0.14 | 0.00 | 98 | 1047.8 |
| 20260831041747 | 69 | 238 | 0.0 | 0.0 | 0.00 | 0.14 | 0.00 | 98 | 1047.8 |
| 20260831041237 | 69 | 238 | 0.0 | 0.0 | 0.00 | 0.14 | 0.00 | 98 | 1047.8 |
| 20260831040735 | 69 | 238 | 0.0 | 0.0 | 0.00 | 0.14 | 0.00 | 98 | 1047.7 |
| 20260831040450 | 69 | 238 | 0.0 | 0.0 | 0.00 | 0.14 | 0.00 | 98 | 1047.7 |
| 20260831035723 | 70 | 238 | 0.0 | 0.0 | 0.00 | 0.14 | 0.14 | 98 | 1047.7 |
| 20260831035436 | 70 | 238 | 0.0 | 0.0 | 0.00 | 0.14 | 0.14 | 98 | 1047.8 |
| 20260831034711 | 70 | 238 | 0.0 | 0.0 | 0.00 | 0.14 | 0.14 | 98 | 1047.8 |
| 20260831034205 | 70 | 238 | 0.0 | 0.0 | 0.00 | 0.14 | 0.14 | 98 | 1047.8 |
| 20260831033655 | 70 | 238 | 0.0 | 0.0 | 0.00 | 0.14 | 0.14 | 98 | 1048.0 |
| 20260831033153 | 70 | 238 | 0.0 | 0.0 | 0.00 | 0.14 | 0.14 | 98 | 1048.0 |
| 20260831032647 | 70 | 238 | 0.0 | 0.0 | 0.00 | 0.14 | 0.14 | 98 | 1048.0 |
| 20260831032136 | 70 | 238 | 0.0 | 0.0 | 0.00 | 0.14 | 0.14 | 98 | 1048.0 |
| 20260831031635 | 71 | 238 | 0.0 | 0.0 | 0.00 | 0.14 | 0.14 | 98 | 1048.0 |
| 20260831031128 | 71 | 238 | 0.0 | 0.0 | 0.00 | 0.14 | 0.14 | 98 | 1048.0 |
| 20260831030850 | 71 | 238 | 0.0 | 0.0 | 0.00 | 0.14 | 0.14 | 97 | 1048.0 |
| 20260831030113 | 71 | 238 | 0.0 | 0.0 | 0.00 | 0.14 | 0.14 | 98 | 1048.0 |
| 20260831025611 | 71 | 238 | 0.0 | 0.0 | 0.00 | 0.14 | 0.14 | 98 | 1048.0 |
| 20260831025105 | 71 | 238 | 0.0 | 0.0 | 0.00 | 0.14 | 0.14 | 98 | 1048.0 |
| 20260831024559 | 71 | 238 | 0.0 | 0.0 | 0.00 | 0.14 | 0.14 | 98 | 1048.0 |
| 20260831024052 | 71 | 238 | 0.0 | 0.0 | 0.00 | 0.14 | 0.14 | 98 | 1048.0 |
| 20260831023547 | 71 | 206 | 0.0 | 0.0 | 0.00 | 0.14 | 0.14 | 98 | 1048.0 |
| 20260831023303 | 71 | 206 | 0.0 | 0.0 | 0.00 | 0.14 | 0.14 | 98 | 1048.0 |
| 20260831021523 | 71 | 206 | 0.0 | 0.0 | 0.00 | 0.14 | 0.14 | 98 | 1048.1 |
| 20260831021017 | 71 | 206 | 0.0 | 0.0 | 0.00 | 0.14 | 0.14 | 97 | 1048.1 |
| 20260831020511 | 71 | 206 | 0.0 | 0.0 | 0.00 | 0.14 | 0.14 | 97 | 1048.1 |
| 20260831020004 | 71 | 206 | 0.0 | 0.0 | 0.00 | 0.14 | 0.14 | 97 | 1048.1 |
| 20260831015458 | 71 | 206 | 0.0 | 0.0 | 0.00 | 0.14 | 0.14 | 97 | 1048.1 |
| 20260831014949 | 71 | 206 | 0.0 | 0.0 | 0.00 | 0.14 | 0.14 | 97 | 1048.1 |
| 20260831014447 | 71 | 206 | 0.0 | 0.0 | 0.00 | 0.14 | 0.14 | 97 | 1048.1 |
| 20260831013940 | 71 | 206 | 0.0 | 0.0 | 0.00 | 0.14 | 0.14 | 97 | 1048.1 |
| 20260831013434 | 71 | 206 | 0.0 | 0.0 | 0.00 | 0.14 | 0.14 | 96 | 1048.1 |
| 20260831012928 | 71 | 206 | 0.0 | 0.0 | 0.00 | 0.14 | 0.14 | 96 | 1048.1 |
| 20260831012422 | 71 | 206 | 0.0 | 0.0 | 0.00 | 0.14 | 0.14 | 96 | 1048.1 |
| 20260831012139 | 71 | 206 | 0.0 | 0.0 | 0.00 | 0.14 | 0.14 | 97 | 1048.1 |
| 20260831011407 | 71 | 206 | 0.0 | 0.0 | 0.00 | 0.14 | 0.14 | 96 | 1048.1 |
| 20260831010905 | 71 | 206 | 0.0 | 0.0 | 0.00 | 0.14 | 0.14 | 96 | 1048.1 |
| 20260831010359 | 71 | 206 | 0.0 | 0.0 | 0.00 | 0.14 | 0.14 | 96 | 1047.9 |
| 20260831005853 | 71 | 206 | 0.0 | 0.0 | 0.00 | 0.14 | 0.14 | 96 | 1047.9 |
| 20260831005347 | 72 | 206 | 0.0 | 0.0 | 0.00 | 0.14 | 0.14 | 96 | 1047.6 |
| 20260831004840 | 71 | 155 | 0.0 | 0.0 | 0.00 | 0.14 | 0.14 | 96 | 1047.6 |
| 20260831004334 | 71 | 155 | 0.0 | 0.0 | 0.00 | 0.14 | 0.14 | 95 | 1047.6 |
| 20260831004053 | 72 | 155 | 0.0 | 0.0 | 0.00 | 0.14 | 0.14 | 95 | 1047.4 |